Location: *
(44.1392°N, 4.8079°E)
Time: 08:38:08
(UTC+00:00)

Lacrosse 5 rocket - Pass Details

Date: 21 June 2021
Orbit: 460 x 634 km, 57.0° (Epoch: 31 July)

Event Time Altitude Azimuth Distance (km) Brightness Sun altitude
Rises 01:23:24 0° 317° (NW) 2,488 5.0 -18.6°
Reaches altitude 10° 01:26:01 10° 337° (NNW) 1,616 4.3 -18.4°
Maximum altitude 01:28:37 18° 23° (NNE) 1,201 4.1 -18.2°
Drops below altitude 10° 01:31:14 10° 69° (ENE) 1,639 4.4 -18.0°
Sets 01:33:55 0° 88° (E) 2,539 5.1 -17.8°
